TimeCDT,TemperatureF,Dew PointF,Humidity,Sea Level PressureIn,VisibilityMPH,Wind Direction,Wind SpeedMPH,Gust SpeedMPH,PrecipitationIn,Events,Conditions,WindDirDegrees,DateUTC
12:13 AM,37.4,21.2,52,30.20,10.0,SE,3.5,-,N/A,,Clear,130,2012-04-12 05:13:00
12:53 AM,35.6,21.2,56,30.20,10.0,SSE,3.5,-,N/A,,Clear,150,2012-04-12 05:53:00
1:12 AM,35.6,23.0,60,30.19,10.0,Calm,Calm,-,N/A,,Clear,0,2012-04-12 06:12:00
1:33 AM,35.6,24.8,65,30.19,10.0,SSE,3.5,-,N/A,,Clear,150,2012-04-12 06:33:00
2:13 AM,35.6,19.4,52,30.18,10.0,SE,4.6,-,N/A,,Clear,140,2012-04-12 07:13:00
2:33 AM,35.6,23.0,60,30.17,10.0,SE,3.5,-,N/A,,Clear,140,2012-04-12 07:33:00
2:53 AM,33.8,21.2,60,30.17,10.0,SE,3.5,-,N/A,,Clear,140,2012-04-12 07:53:00
3:12 AM,32.0,23.0,69,30.17,10.0,Calm,Calm,-,N/A,,Clear,0,2012-04-12 08:12:00
3:53 AM,30.2,24.8,80,30.17,10.0,Calm,Calm,-,N/A,,Clear,0,2012-04-12 08:53:00
4:13 AM,30.2,24.8,80,30.17,10.0,SSE,3.5,-,N/A,,Clear,150,2012-04-12 09:13:00
4:33 AM,30.2,19.4,64,30.17,10.0,SE,3.5,-,N/A,,Clear,140,2012-04-12 09:33:00
4:53 AM,33.8,19.4,56,30.16,10.0,SE,4.6,-,N/A,,Clear,140,2012-04-12 09:53:00
5:13 AM,35.6,19.4,52,30.16,10.0,SSE,3.5,-,N/A,,Clear,160,2012-04-12 10:13:00
5:33 AM,30.2,19.4,64,30.16,10.0,Calm,Calm,-,N/A,,Clear,0,2012-04-12 10:33:00
5:53 AM,30.2,19.4,64,30.16,10.0,SE,3.5,-,N/A,,Clear,130,2012-04-12 10:53:00
6:12 AM,32.0,19.4,60,30.16,10.0,SE,4.6,-,N/A,,Clear,140,2012-04-12 11:12:00
6:33 AM,32.0,19.4,60,30.17,10.0,SE,4.6,-,N/A,,Clear,140,2012-04-12 11:33:00
6:53 AM,33.8,21.2,60,30.17,10.0,Calm,Calm,-,N/A,,Clear,0,2012-04-12 11:53:00
7:13 AM,35.6,21.2,56,30.17,10.0,Calm,Calm,-,N/A,,Clear,0,2012-04-12 12:13:00
7:33 AM,37.4,24.8,60,30.17,10.0,Calm,Calm,-,N/A,,Clear,0,2012-04-12 12:33:00
7:53 AM,37.4,26.6,65,30.16,10.0,Calm,Calm,-,N/A,,Clear,0,2012-04-12 12:53:00
8:13 AM,39.2,23.0,52,30.16,10.0,SSE,3.5,-,N/A,,Clear,160,2012-04-12 13:13:00
8:53 AM,44.6,23.0,43,30.16,10.0,SSE,3.5,-,N/A,,Clear,150,2012-04-12 13:53:00
9:13 AM,46.4,21.2,37,30.16,10.0,SSE,3.5,-,N/A,,Clear,150,2012-04-12 14:13:00
9:33 AM,48.2,21.2,34,30.15,10.0,Calm,Calm,-,N/A,,Clear,0,2012-04-12 14:33:00
9:53 AM,51.8,19.4,28,30.15,10.0,South,4.6,-,N/A,,Clear,170,2012-04-12 14:53:00
10:13 AM,53.6,19.4,26,30.14,10.0,SSE,5.8,-,N/A,,Clear,160,2012-04-12 15:13:00
10:33 AM,53.6,19.4,26,30.13,10.0,SSE,4.6,-,N/A,,Clear,160,2012-04-12 15:33:00
10:53 AM,55.4,17.6,23,30.13,10.0,SE,8.1,-,N/A,,Clear,140,2012-04-12 15:53:00
11:13 AM,55.4,17.6,23,30.13,10.0,SSE,9.2,-,N/A,,Clear,150,2012-04-12 16:13:00
11:33 AM,55.4,17.6,23,30.12,10.0,SSE,10.4,-,N/A,,Clear,150,2012-04-12 16:33:00
11:52 AM,55.4,17.6,23,30.12,10.0,SE,8.1,-,N/A,,Clear,130,2012-04-12 16:52:00
12:13 PM,57.2,17.6,21,30.12,10.0,SE,8.1,-,N/A,,Clear,140,2012-04-12 17:13:00
12:33 PM,59.0,17.6,20,30.11,10.0,SE,13.8,19.6,N/A,,Clear,130,2012-04-12 17:33:00
12:52 PM,59.0,17.6,20,30.10,10.0,SSE,5.8,-,N/A,,Scattered Clouds,150,2012-04-12 17:52:00
1:13 PM,57.2,17.6,21,30.09,10.0,SSE,6.9,19.6,N/A,,Clear,150,2012-04-12 18:13:00
1:33 PM,59.0,17.6,20,30.08,10.0,SE,10.4,-,N/A,,Clear,140,2012-04-12 18:33:00
1:52 PM,59.0,17.6,20,30.08,10.0,SE,10.4,17.3,N/A,,Clear,140,2012-04-12 18:52:00
2:13 PM,60.8,19.4,20,30.07,10.0,SSE,10.4,23.0,N/A,,Clear,150,2012-04-12 19:13:00
2:32 PM,60.8,19.4,20,30.07,10.0,South,6.9,-,N/A,,Clear,170,2012-04-12 19:32:00
2:53 PM,60.8,19.4,20,30.06,10.0,SSE,12.7,21.9,N/A,,Clear,150,2012-04-12 19:53:00
3:13 PM,60.8,19.4,20,30.05,10.0,SE,9.2,-,N/A,,Clear,140,2012-04-12 20:13:00
3:33 PM,62.6,19.4,19,30.04,10.0,SSE,8.1,18.4,N/A,,Clear,150,2012-04-12 20:33:00
3:53 PM,62.6,19.4,19,30.02,10.0,SE,11.5,17.3,N/A,,Clear,140,2012-04-12 20:53:00
4:13 PM,60.8,17.6,19,30.01,10.0,SSE,10.4,-,N/A,,Clear,150,2012-04-12 21:13:00
4:33 PM,62.6,17.6,18,30.01,10.0,SSE,10.4,16.1,N/A,,Clear,150,2012-04-12 21:33:00
4:53 PM,62.6,17.6,18,30.00,10.0,SE,9.2,16.1,N/A,,Clear,140,2012-04-12 21:53:00
5:13 PM,62.6,19.4,19,30.00,10.0,ESE,17.3,-,N/A,,Scattered Clouds,120,2012-04-12 22:13:00
5:32 PM,60.8,17.6,19,30.00,10.0,SE,16.1,-,N/A,,Overcast,130,2012-04-12 22:32:00
5:53 PM,60.8,19.4,20,30.00,10.0,ESE,13.8,-,N/A,,Mostly Cloudy,120,2012-04-12 22:53:00
6:13 PM,60.8,19.4,20,30.00,10.0,ESE,12.7,-,N/A,,Mostly Cloudy,120,2012-04-12 23:13:00
6:33 PM,60.8,19.4,20,29.99,10.0,ESE,11.5,16.1,N/A,,Overcast,120,2012-04-12 23:33:00
6:53 PM,60.8,21.2,22,29.99,10.0,ESE,11.5,-,N/A,,Overcast,120,2012-04-12 23:53:00
7:13 PM,60.8,21.2,22,29.99,10.0,ESE,12.7,16.1,N/A,,Overcast,120,2012-04-13 00:13:00
7:33 PM,60.8,21.2,22,29.98,10.0,ESE,10.4,-,N/A,,Overcast,120,2012-04-13 00:33:00
7:53 PM,59.0,21.2,23,29.98,10.0,SE,9.2,-,N/A,,Overcast,130,2012-04-13 00:53:00
8:12 PM,59.0,23.0,25,29.99,10.0,SSE,5.8,-,N/A,,Overcast,150,2012-04-13 01:12:00
8:33 PM,57.2,26.6,31,29.99,10.0,South,3.5,-,N/A,,Overcast,180,2012-04-13 01:33:00
8:53 PM,55.4,30.2,38,29.99,10.0,Calm,Calm,-,N/A,,Overcast,0,2012-04-13 01:53:00
9:12 PM,55.4,28.4,36,29.99,10.0,SSE,4.6,-,N/A,,Mostly Cloudy,150,2012-04-13 02:12:00
9:33 PM,55.4,26.6,33,29.99,10.0,SE,6.9,-,N/A,,Mostly Cloudy,140,2012-04-13 02:33:00
9:53 PM,55.4,26.6,33,29.99,10.0,SE,8.1,-,N/A,,Overcast,140,2012-04-13 02:53:00
10:13 PM,55.4,26.6,33,29.99,10.0,SE,5.8,-,N/A,,Overcast,130,2012-04-13 03:13:00
10:33 PM,53.6,26.6,35,29.98,10.0,SE,8.1,-,N/A,,Overcast,130,2012-04-13 03:33:00
10:53 PM,53.6,26.6,35,29.99,10.0,SE,8.1,-,N/A,,Overcast,130,2012-04-13 03:53:00
11:12 PM,55.4,24.8,31,29.99,10.0,SE,6.9,-,N/A,,Overcast,140,2012-04-13 04:12:00
11:52 PM,55.4,23.0,29,29.97,10.0,SE,11.5,-,N/A,,Mostly Cloudy,130,2012-04-13 04:52:00